Location: Camp at the Woods
(43.2055°N, 93.0905°W)
Time: 11:32:06
(UTC+00:00)

PSLV R/B - Pass Details

Date: 05 December 2023
Orbit: 580 x 613 km, 98.1° (Epoch: 20 February)

Event Time Altitude Azimuth Distance (km) Brightness Sun altitude
Rises 12:06:35 0° 9° (N) 2,901 6.9 -14.5°
Reaches altitude 10° 12:08:48 10° 6° (N) 1,989 6.0 -14.1°
Maximum altitude 12:13:03 60° 287° (WNW) 708 3.5 -13.3°
Drops below altitude 10° 12:17:16 10° 207° (SSW) 1,962 6.0 -12.6°
Sets 12:19:26 0° 204° (SSW) 2,857 6.9 -12.2°
